Weather History for Phuket, Thailand

Change the Weather History Date:

Thursday, March 15, 2012

  Actual Average Record
Temperature  
Mean Temperature 83 °F -  
Max Temperature 92 °F 92 °F 102 °F (1998)
Min Temperature 74 °F 76 °F 73 °F (2008)
Cooling Degree Days 18    
Growing Degree Days 33 (Base 50)    
Moisture  
Dew Point 75 °F    
Average Humidity 79    
Maximum Humidity 100    
Minimum Humidity 46    
Precipitation  
Precipitation 0.00 in 0.14 in - ()
Sea Level Pressure  
Sea Level Pressure 29.87 in    
Wind  
Wind Speed 3 mph ()    
Max Wind Speed 14 mph    
Max Gust Speed -    
Visibility 5.6 miles    
Events      
Averages and records for this station are not official NWS values.
T = Trace of Precipitation, MM = Missing Value Source: Averaged Metar Reports

Daily Weather History Graph

Daily Weather History Graph

Search for Another Location

Airport:

Trip Planner

Search our weather history database for the weather conditions in past years. The results will help you decide how hot, cold, wet, or windy it might be!

Date:

Astronomy

Mar. 15, 2012 Rise Set
Actual Time 6:33 AM ICT 6:37 PM ICT
Civil Twilight 6:12 AM ICT 6:58 PM ICT
Nautical Twilight 5:48 AM ICT 7:22 PM ICT
Astronomical Twilight 5:24 AM ICT 7:47 PM ICT
Moon 12:27 AM ICT (3/15) 12:27 PM ICT (3/15)
Length of Visible Light 12h 46m
Length of Day
12h 04m
Waning Gibbous, 48% of the Moon is Illuminated
Mar 15
Waning Gibbous
Mar 22
New
Mar 31
First Quarter
Apr 7
Full
Apr 13
Last Quarter

Hourly Weather History & Observations

Time (ICT) Temp. Heat Index Dew Point Humidity Pressure Visibility Wind Dir Wind Speed Gust Speed Precip Events Conditions
12:00 AM 75.2 °F - 75.2 °F 100% 29.92 in 5.0 mi Calm Calm - N/A   Mostly Cloudy
12:30 AM 75.2 °F - 75.2 °F 100% 29.92 in 5.0 mi Calm Calm - N/A   Mostly Cloudy
1:00 AM 77 °F - 76 °F 97% 29.87 in 6 mi Calm Calm - -   Mist
1:00 AM 77.0 °F - 77.0 °F 100% 29.89 in 5.0 mi Variable 1.2 mph - N/A   Mostly Cloudy
1:30 AM 75.2 °F - 75.2 °F 100% 29.89 in 5.0 mi Calm Calm - N/A   Mostly Cloudy
2:00 AM 75.2 °F - 75.2 °F 100% 29.89 in 5.0 mi Calm Calm - N/A   Mostly Cloudy
2:30 AM 77.0 °F - 77.0 °F 100% 29.89 in 5.0 mi Calm Calm - N/A   Mostly Cloudy
3:00 AM 77.0 °F - 77.0 °F 100% 29.86 in 5.0 mi Calm Calm - N/A   Mostly Cloudy
3:30 AM 77.0 °F - 77.0 °F 100% 29.86 in 5.0 mi Calm Calm - N/A   Mostly Cloudy
4:00 AM 77.0 °F - 77.0 °F 100% 29.86 in 5.0 mi Calm Calm - N/A   Mostly Cloudy
4:30 AM 77.0 °F - 77.0 °F 100% 29.86 in 5.0 mi Calm Calm - N/A   Mostly Cloudy
5:00 AM 75.2 °F - 75.2 °F 100% 29.86 in 5.0 mi Variable 2.3 mph - N/A   Mostly Cloudy
5:30 AM 77.0 °F - 77.0 °F 100% 29.86 in 5.0 mi Variable 2.3 mph - N/A   Mostly Cloudy
6:00 AM 75.2 °F - 75.2 °F 100% 29.89 in 5.0 mi Variable 1.2 mph - N/A   Mostly Cloudy
6:30 AM 75.2 °F - 75.2 °F 100% 29.89 in 5.0 mi Calm Calm - N/A   Mostly Cloudy
7:00 AM 76 °F - 76 °F 100% 29.86 in 6 mi Calm Calm - -   Mist
7:00 AM 75.2 °F - 75.2 °F 100% 29.89 in 5.0 mi Calm Calm - N/A   Mostly Cloudy
7:30 AM 77.0 °F - 77.0 °F 100% 29.92 in 5.0 mi Variable 2.3 mph - N/A   Mostly Cloudy
8:00 AM 80.6 °F 87.1 °F 77.0 °F 89% 29.92 in 5.0 mi ENE 4.6 mph - N/A   Mostly Cloudy
8:30 AM 82.4 °F 92.4 °F 78.8 °F 89% 29.95 in 5.0 mi Calm Calm - N/A   Mostly Cloudy
9:00 AM 82.4 °F 90.9 °F 77.0 °F 84% 29.95 in 5.0 mi N/A N/A - N/A   Mostly Cloudy
9:05 AM 82.4 °F 90.9 °F 77.0 °F 84% 29.95 in 5.0 mi N/A N/A - N/A   Mostly Cloudy
9:30 AM 86.0 °F 93.4 °F 73.4 °F 66% 29.92 in 5.6 mi East 13.8 mph - N/A   Mostly Cloudy
10:00 AM 86.0 °F 93.4 °F 73.4 °F 66% 29.92 in 5.6 mi East 11.5 mph - N/A   Mostly Cloudy
10:30 AM 86.0 °F 93.4 °F 73.4 °F 66% 29.92 in 5.6 mi ENE 8.1 mph - N/A   Mostly Cloudy
11:00 AM 87.8 °F 95.6 °F 73.4 °F 62% 29.92 in 5.6 mi East 8.1 mph - N/A   Mostly Cloudy
11:30 AM 87.8 °F 95.6 °F 73.4 °F 62% 29.92 in 6.2 mi ENE 9.2 mph - N/A   Mostly Cloudy
12:00 PM 87.8 °F 95.6 °F 73.4 °F 62% 29.89 in 6.2 mi East 10.4 mph - N/A   Mostly Cloudy
12:30 PM 89.6 °F 96.2 °F 71.6 °F 55% 29.86 in 6.2 mi East 4.6 mph - N/A   Mostly Cloudy
1:00 PM 89 °F - 74 °F 53% 29.86 in 6 mi East 11.5 mph - -   Scattered Clouds
1:00 PM 89.6 °F 96.2 °F 71.6 °F 55% 29.86 in 6.2 mi East 11.5 mph - N/A   Mostly Cloudy
1:30 PM 91.4 °F 100.1 °F 73.4 °F 55% 29.83 in 6.2 mi East 13.8 mph - N/A   Mostly Cloudy
2:00 PM 91.4 °F 100.1 °F 73.4 °F 55% 29.83 in 6.2 mi NE 5.8 mph - N/A   Mostly Cloudy
2:30 PM 91.4 °F 95.4 °F 68.0 °F 46% 29.83 in 6.2 mi East 5.8 mph - N/A   Mostly Cloudy
3:00 PM 91.4 °F 96.8 °F 69.8 °F 49% 29.80 in 6.2 mi East 11.5 mph - N/A   Mostly Cloudy
3:30 PM 91.4 °F 96.8 °F 69.8 °F 49% 29.80 in 6.2 mi East 5.8 mph - N/A   Mostly Cloudy
4:00 PM 91.4 °F 98.4 °F 71.6 °F 52% 29.80 in 6.2 mi SE 5.8 mph - N/A   Mostly Cloudy
4:30 PM 91.4 °F 96.8 °F 69.8 °F 49% 29.80 in 6.2 mi East 5.8 mph - N/A   Mostly Cloudy
5:00 PM 91.4 °F 96.8 °F 69.8 °F 49% 29.80 in 6.2 mi Calm Calm - N/A   Mostly Cloudy
5:30 PM 87.8 °F 93.8 °F 71.6 °F 58% 29.83 in 6.2 mi WNW 10.4 mph - N/A   Mostly Cloudy
6:00 PM 87.8 °F 95.6 °F 73.4 °F 62% 29.83 in 6.2 mi West 6.9 mph - N/A   Mostly Cloudy
6:30 PM 86.0 °F 91.8 °F 71.6 °F 62% 29.83 in 6.2 mi West 11.5 mph - N/A   Mostly Cloudy
7:00 PM 87 °F - 74 °F 58% 29.79 in 6 mi WNW 6.9 mph - -   Scattered Clouds
7:00 PM 84.2 °F 90.9 °F 73.4 °F 70% 29.83 in 6.2 mi WNW 6.9 mph - N/A   Mostly Cloudy
7:30 PM 84.2 °F 90.9 °F 73.4 °F 70% 29.83 in 6.2 mi West 5.8 mph - N/A   Mostly Cloudy
8:00 PM 84.2 °F 90.9 °F 73.4 °F 70% 29.86 in 6.2 mi WSW 3.5 mph - N/A   Mostly Cloudy
8:30 PM 84.2 °F 92.3 °F 75.2 °F 74% 29.86 in 6.2 mi WNW 5.8 mph - N/A   Mostly Cloudy
9:00 PM 80.6 °F 87.1 °F 77.0 °F 89% 29.86 in 6.2 mi Calm Calm - N/A   Mostly Cloudy
9:30 PM 78.8 °F - 77.0 °F 94% 29.89 in 5.6 mi Calm Calm - N/A   Mostly Cloudy
10:00 PM 78.8 °F - 77.0 °F 94% 29.89 in - North - - N/A   Mostly Cloudy
10:05 PM 78.8 °F - 77.0 °F 94% 29.89 in - North - - N/A   Mostly Cloudy
10:30 PM 78.8 °F - 78.8 °F 100% 29.89 in 5.6 mi Calm Calm - N/A   Mostly Cloudy
11:00 PM 80.6 °F 88.1 °F 78.8 °F 94% 29.89 in 5.6 mi Calm Calm - N/A   Mostly Cloudy
11:30 PM 78.8 °F - 78.8 °F 100% 29.89 in 5.6 mi Calm Calm - N/A   Mostly Cloudy